MUOS-1

Last updated on Tue Sep 16 2025 00:02:47 GMT+0000 (Coordinated Universal Time)

1 38093U 12009A 25258.49340221 -.00000142 00000+0 00000+0 0 9998 2 38093 4.9157 47.0209 0052325 4.0194 21.3120 1.00273104 49693
UTC large
Height (km)
Speed (km/s)
/
Latitude / Longitude
Inclination (degrees)
Orbital Period (minutes)
Azimuth
Elevation
Range (km)
Doppler Factor

Next 0 passes for location: London (51.5072 / 0.1276)

Sorry there are no passes over London.